Minneapolis Flying Cloud, MN

1:59 PM CDT on August 21, 2017 (GMT -0500)
Flying Cloud

Weather History for KFCM - July, 2013

Change the Weather History Date:

Tuesday, July 23, 2013

  Actual Average Record
Temperature  
Mean Temperature 69 °F -  
Max Temperature 77 °F 80 °F 98 °F (2012)
Min Temperature 61 °F 61 °F 55 °F (2002)
Cooling Degree Days 4    
Growing Degree Days 19 (Base 50)    
Moisture  
Dew Point 53 °F    
Average Humidity 58    
Maximum Humidity 78    
Minimum Humidity 40    
Precipitation  
Precipitation 0.00 in - - ()
Sea Level Pressure  
Sea Level Pressure 29.95 in    
Wind  
Wind Speed 7 mph (North)    
Max Wind Speed 12 mph    
Max Gust Speed 16 mph    
Visibility 10 miles    
Events      
Averages and records for this station are not official NWS values.
T = Trace of Precipitation, MM = Missing Value Source: NWS Daily Summary

Daily Weather History Graph

Daily Weather History Graph

Search for Another Location

Airport or City:

Trip Planner

Search our weather history database for the weather conditions in past years. The results will help you decide how hot, cold, wet, or windy it might be!

Date:

Astronomy

Jul. 23, 2013 Rise Set
Actual Time 5:50 AM CDT 8:49 PM CDT
Civil Twilight 5:15 AM CDT 9:24 PM CDT
Nautical Twilight 4:30 AM CDT 10:08 PM CDT
Astronomical Twilight 3:37 AM CDT 11:01 PM CDT
Moon 9:11 PM CDT (7/23) 7:05 AM CDT (7/23)
Length of Visible Light 16h 09m
Length of Day
14h 59m
Full, 99% of the Moon is Illuminated
Jul 23
Full
Jul 29
Last Quarter
Aug 6
New
Aug 14
First Quarter
Aug 20
Full

Hourly Weather History & Observations

Time (CDT) Temp. Dew Point Humidity Pressure Visibility Wind Dir Wind Speed Gust Speed Precip Events Conditions
12:53 AM 66.9 °F 55.0 °F 66% 29.85 in 10.0 mi NNW 5.8 mph - N/A   Clear
1:53 AM 66.0 °F 55.9 °F 70% 29.85 in 10.0 mi NNW 5.8 mph - N/A   Clear
2:53 AM 64.9 °F 55.9 °F 73% 29.86 in 10.0 mi NNW 6.9 mph - N/A   Clear
3:53 AM 64.0 °F 55.0 °F 73% 29.87 in 10.0 mi NNW 9.2 mph - N/A   Clear
4:53 AM 62.1 °F 55.0 °F 78% 29.89 in 10.0 mi NNW 6.9 mph - N/A   Clear
5:53 AM 61.0 °F 54.0 °F 78% 29.90 in 10.0 mi North 6.9 mph - N/A   Clear
6:53 AM 62.1 °F 55.0 °F 78% 29.92 in 10.0 mi North 5.8 mph - N/A   Clear
7:53 AM 64.9 °F 55.0 °F 70% 29.96 in 10.0 mi North 6.9 mph - N/A   Clear
8:53 AM 66.9 °F 54.0 °F 63% 29.95 in 10.0 mi North 9.2 mph - N/A   Clear
9:53 AM 69.1 °F 53.1 °F 57% 29.96 in 10.0 mi North 10.4 mph - N/A   Clear
10:53 AM 71.1 °F 53.1 °F 53% 29.98 in 10.0 mi North 8.1 mph 16.1 mph N/A   Clear
11:53 AM 72.0 °F 52.0 °F 49% 29.98 in 10.0 mi North 11.5 mph - N/A   Clear
12:53 PM 73.0 °F 52.0 °F 48% 29.99 in 10.0 mi NNE 10.4 mph - N/A   Clear
1:53 PM 73.9 °F 52.0 °F 46% 29.98 in 10.0 mi North 9.2 mph - N/A   Clear
2:53 PM 75.9 °F 51.1 °F 42% 29.98 in 10.0 mi NE 6.9 mph - N/A   Clear
3:53 PM 77.0 °F 52.0 °F 42% 29.97 in 10.0 mi NE 9.2 mph - N/A   Clear
4:53 PM 77.0 °F 52.0 °F 42% 29.96 in 10.0 mi North 6.9 mph - N/A   Clear
5:53 PM 77.0 °F 51.1 °F 40% 29.97 in 8.0 mi NNE 8.1 mph - N/A   Clear
6:53 PM 75.9 °F 52.0 °F 43% 29.97 in 10.0 mi North 6.9 mph - N/A   Partly Cloudy
7:53 PM 72.0 °F 52.0 °F 49% 29.98 in 10.0 mi North 8.1 mph - N/A   Clear
8:53 PM 70.0 °F 52.0 °F 53% 29.98 in 10.0 mi North 3.5 mph - N/A   Clear
9:53 PM 68.0 °F 52.0 °F 56% 30.00 in 10.0 mi NNE 3.5 mph - N/A   Scattered Clouds
10:53 PM 66.9 °F 52.0 °F 59% 30.00 in 10.0 mi North 3.5 mph - N/A   Clear
11:53 PM 64.9 °F 53.1 °F 65% 30.01 in 10.0 mi North 3.5 mph - N/A   Clear